| time (UTC) | temp C | wind direction | speed KPH | gust KPH | rain 1hr cm | rain 24hr cm | rain mn cm | humidity % | barometer mb |
| 20260906095604 | 21 | 195 | 0.0 | 0.0 | 0.00 | 0.00 | 0.00 | 99 | 1012.4 |
| 20260906095100 | 21 | 195 | 0.0 | 0.0 | 0.00 | 0.00 | 0.00 | 99 | 1012.1 |
| 20260906094558 | 22 | 195 | 0.0 | 0.0 | 0.00 | 0.00 | 0.00 | 99 | 1012.1 |
| 20260906094054 | 21 | 195 | 0.0 | 0.0 | 0.00 | 0.00 | 0.00 | 99 | 1012.4 |
| 20260906093550 | 21 | 195 | 0.0 | 0.0 | 0.00 | 0.00 | 0.00 | 99 | 1012.1 |
| 20260906093045 | 21 | 188 | 0.0 | 1.6 | 0.00 | 0.00 | 0.00 | 99 | 1012.1 |
| 20260906092541 | 21 | 173 | 0.0 | 1.6 | 0.00 | 0.00 | 0.00 | 99 | 1012.1 |
| 20260906092035 | 21 | 0 | 0.0 | 0.0 | 0.00 | 0.00 | 0.00 | 99 | 1012.3 |
| 20260906091531 | 21 | 0 | 0.0 | 0.0 | 0.00 | 0.00 | 0.00 | 99 | 1012.3 |
| 20260906091028 | 21 | 0 | 0.0 | 0.0 | 0.00 | 0.00 | 0.00 | 99 | 1012.4 |
| 20260906090528 | 21 | 0 | 0.0 | 0.0 | 0.00 | 0.00 | 0.00 | 99 | 1012.3 |
| 20260906090023 | 21 | 0 | 0.0 | 0.0 | 0.00 | 0.00 | 0.00 | 99 | 1012.3 |
| 20260906085522 | 21 | 0 | 0.0 | 0.0 | 0.00 | 0.00 | 0.00 | 99 | 1012.4 |
| 20260906085021 | 21 | 0 | 0.0 | 1.6 | 0.00 | 0.00 | 0.00 | 99 | 1012.4 |
| 20260906084516 | 21 | 8 | 0.0 | 0.0 | 0.00 | 0.00 | 0.00 | 99 | 1012.1 |
| 20260906084015 | 21 | 8 | 0.0 | 0.0 | 0.00 | 0.00 | 0.00 | 99 | 1012.1 |
| 20260906083511 | 21 | 254 | 0.0 | 0.0 | 0.00 | 0.00 | 0.00 | 99 | 1012.1 |
| 20260906083010 | 21 | 352 | 0.0 | 0.0 | 0.00 | 0.00 | 0.00 | 99 | 1012.3 |
| 20260906082505 | 21 | 352 | 0.0 | 0.0 | 0.00 | 0.00 | 0.00 | 99 | 1011.9 |
| 20260906082001 | 21 | 352 | 0.0 | 0.0 | 0.00 | 0.00 | 0.00 | 99 | 1012.1 |
| 20260906081456 | 21 | 0 | 0.0 | 0.0 | 0.00 | 0.00 | 0.00 | 99 | 1011.9 |
| 20260906080952 | 21 | 0 | 0.0 | 0.0 | 0.00 | 0.00 | 0.00 | 99 | 1011.9 |
| 20260906080448 | 21 | 0 | 0.0 | 0.0 | 0.00 | 0.00 | 0.00 | 99 | 1011.9 |
| 20260906075943 | 21 | 0 | 0.0 | 0.0 | 0.00 | 0.00 | 0.00 | 99 | 1011.9 |
| 20260906075438 | 21 | 0 | 0.0 | 0.0 | 0.00 | 0.00 | 0.00 | 99 | 1011.7 |
| 20260906074933 | 21 | 0 | 0.0 | 0.0 | 0.00 | 0.00 | 0.00 | 99 | 1012.1 |
| 20260906074433 | 21 | 0 | 0.0 | 0.0 | 0.00 | 0.00 | 0.00 | 99 | 1012.1 |
| 20260906073931 | 21 | 0 | 0.0 | 0.0 | 0.00 | 0.00 | 0.00 | 99 | 1011.8 |
| 20260906073426 | 21 | 0 | 0.0 | 0.0 | 0.00 | 0.00 | 0.00 | 99 | 1012.1 |
| 20260906072923 | 21 | 0 | 0.0 | 0.0 | 0.00 | 0.00 | 0.00 | 99 | 1011.9 |
| 20260906072418 | 21 | 0 | 0.0 | 1.6 | 0.00 | 0.00 | 0.00 | 99 | 1011.9 |
| 20260906071914 | 21 | 0 | 0.0 | 0.0 | 0.00 | 0.00 | 0.00 | 99 | 1012.4 |
| 20260906071409 | 21 | 0 | 0.0 | 0.0 | 0.00 | 0.00 | 0.00 | 99 | 1012.4 |
| 20260906070905 | 21 | 0 | 0.0 | 0.0 | 0.00 | 0.00 | 0.00 | 99 | 1012.1 |
| 20260906070401 | 21 | 0 | 0.0 | 0.0 | 0.00 | 0.00 | 0.00 | 99 | 1012.0 |
| 20260906065857 | 21 | 0 | 0.0 | 0.0 | 0.00 | 0.00 | 0.00 | 99 | 1012.0 |
| 20260906065350 | 22 | 0 | 0.0 | 1.6 | 0.00 | 0.00 | 0.00 | 99 | 1012.0 |
| 20260906064846 | 21 | 195 | 0.0 | 0.0 | 0.00 | 0.00 | 0.00 | 99 | 1012.0 |
| 20260906064342 | 22 | 195 | 0.0 | 0.0 | 0.00 | 0.00 | 0.00 | 99 | 1011.9 |
| 20260906063837 | 22 | 195 | 0.0 | 0.0 | 0.00 | 0.00 | 0.00 | 99 | 1011.9 |
| 20260906063332 | 22 | 195 | 0.0 | 0.0 | 0.00 | 0.00 | 0.00 | 99 | 1011.8 |
| 20260906062827 | 22 | 195 | 0.0 | 0.0 | 0.00 | 0.00 | 0.00 | 99 | 1012.0 |
| 20260906062327 | 22 | 195 | 0.0 | 0.0 | 0.00 | 0.00 | 0.00 | 99 | 1012.4 |
| 20260906061822 | 22 | 195 | 0.0 | 0.0 | 0.00 | 0.00 | 0.00 | 99 | 1012.6 |
| 20260906061318 | 22 | 195 | 0.0 | 0.0 | 0.00 | 0.00 | 0.00 | 99 | 1012.8 |
| 20260906060813 | 22 | 195 | 0.0 | 0.0 | 0.00 | 0.00 | 0.00 | 98 | 1012.7 |
| 20260906060311 | 22 | 195 | 0.0 | 1.6 | 0.00 | 0.00 | 0.00 | 98 | 1012.9 |
| 20260906055807 | 22 | 192 | 0.0 | 1.6 | 0.00 | 0.00 | 0.00 | 98 | 1012.9 |
| 20260906055306 | 22 | 346 | 0.0 | 0.0 | 0.00 | 0.00 | 0.00 | 98 | 1013.2 |
| 20260906054756 | 22 | 346 | 0.0 | 0.0 | 0.00 | 0.00 | 0.00 | 98 | 1013.1 |
| 20260906054252 | 22 | 346 | 0.0 | 0.0 | 0.00 | 0.00 | 0.00 | 98 | 1013.1 |
| 20260906053748 | 22 | 346 | 0.0 | 0.0 | 0.00 | 0.00 | 0.00 | 98 | 1012.9 |
| 20260906053244 | 22 | 346 | 0.0 | 1.6 | 0.00 | 0.00 | 0.00 | 98 | 1013.2 |
| 20260906052739 | 22 | 195 | 0.0 | 0.0 | 0.00 | 0.00 | 0.00 | 97 | 1013.1 |
| 20260906052235 | 22 | 195 | 0.0 | 1.6 | 0.00 | 0.00 | 0.00 | 97 | 1013.1 |
| 20260906051732 | 22 | 172 | 0.0 | 3.2 | 0.00 | 0.00 | 0.00 | 97 | 1013.3 |
| 20260906051231 | 22 | 345 | 0.0 | 0.0 | 0.00 | 0.00 | 0.00 | 97 | 1013.4 |
| 20260906050727 | 22 | 345 | 0.0 | 0.0 | 0.00 | 0.00 | 0.00 | 97 | 1013.6 |
| 20260906050222 | 22 | 345 | 0.0 | 0.0 | 0.00 | 0.00 | 0.00 | 97 | 1013.3 |
| 20260906045720 | 22 | 345 | 0.0 | 0.0 | 0.00 | 0.00 | 0.00 | 96 | 1013.4 |
| 20260906045216 | 22 | 345 | 0.0 | 0.0 | 0.00 | 0.00 | 0.00 | 96 | 1013.1 |
| 20260906044712 | 22 | 345 | 0.0 | 1.6 | 0.00 | 0.00 | 0.00 | 96 | 1013.3 |
| 20260906044206 | 23 | 188 | 0.0 | 0.0 | 0.00 | 0.00 | 0.00 | 96 | 1013.1 |
| 20260906043703 | 22 | 188 | 0.0 | 0.0 | 0.00 | 0.00 | 0.00 | 96 | 1013.2 |
| 20260906043158 | 22 | 188 | 0.0 | 0.0 | 0.00 | 0.00 | 0.00 | 96 | 1013.4 |
| 20260906042657 | 22 | 188 | 0.0 | 0.0 | 0.00 | 0.00 | 0.00 | 96 | 1013.2 |
| 20260906042151 | 23 | 188 | 0.0 | 0.0 | 0.00 | 0.00 | 0.00 | 96 | 1013.3 |
| 20260906041647 | 23 | 188 | 0.0 | 0.0 | 0.00 | 0.00 | 0.00 | 96 | 1013.3 |
| 20260906041142 | 23 | 188 | 0.0 | 0.0 | 0.00 | 0.00 | 0.00 | 96 | 1013.1 |
| 20260906040637 | 23 | 279 | 0.0 | 0.0 | 0.00 | 0.00 | 0.00 | 96 | 1013.3 |
| 20260906040133 | 23 | 279 | 0.0 | 0.0 | 0.00 | 0.00 | 0.00 | 96 | 1013.3 |
| 20260906035628 | 23 | 279 | 0.0 | 0.0 | 0.00 | 0.05 | 0.05 | 96 | 1013.2 |
| 20260906035124 | 23 | 279 | 0.0 | 0.0 | 0.00 | 0.05 | 0.05 | 97 | 1013.1 |
| 20260906034624 | 23 | 279 | 0.0 | 0.0 | 0.00 | 0.05 | 0.05 | 97 | 1013.2 |
| 20260906034118 | 23 | 279 | 0.0 | 0.0 | 0.00 | 0.05 | 0.05 | 97 | 1013.3 |
| 20260906033614 | 23 | 279 | 0.0 | 0.0 | 0.00 | 0.05 | 0.05 | 97 | 1013.1 |
| 20260906033109 | 23 | 279 | 0.0 | 0.0 | 0.00 | 0.05 | 0.05 | 98 | 1013.3 |
| 20260906032606 | 23 | 279 | 0.0 | 0.0 | 0.00 | 0.05 | 0.05 | 98 | 1013.4 |
| 20260906032100 | 23 | 291 | 0.0 | 0.0 | 0.00 | 0.05 | 0.05 | 98 | 1013.4 |
| 20260906031555 | 23 | 286 | 0.0 | 0.0 | 0.00 | 0.05 | 0.05 | 97 | 1013.3 |
| 20260906031051 | 23 | 286 | 0.0 | 0.0 | 0.00 | 0.05 | 0.05 | 97 | 1013.2 |
| 20260906030550 | 23 | 286 | 0.0 | 0.0 | 0.00 | 0.05 | 0.05 | 97 | 1013.3 |
| 20260906030049 | 23 | 286 | 0.0 | 0.0 | 0.00 | 0.05 | 0.05 | 97 | 1013.5 |
| 20260906025544 | 23 | 286 | 0.0 | 1.6 | 0.00 | 0.05 | 0.05 | 97 | 1013.3 |
| 20260906025042 | 23 | 254 | 0.0 | 1.6 | 0.00 | 0.05 | 0.05 | 97 | 1013.5 |
| 20260906024538 | 23 | 270 | 0.0 | 0.0 | 0.00 | 0.05 | 0.05 | 96 | 1013.4 |
| 20260906024037 | 23 | 286 | 0.0 | 0.0 | 0.00 | 0.05 | 0.05 | 96 | 1013.6 |
| 20260906023534 | 23 | 286 | 0.0 | 1.6 | 0.00 | 0.05 | 0.05 | 96 | 1013.3 |
| 20260906023028 | 23 | 203 | 0.0 | 0.0 | 0.00 | 0.05 | 0.05 | 96 | 1013.4 |
| 20260906022523 | 23 | 203 | 0.0 | 0.0 | 0.00 | 0.05 | 0.05 | 95 | 1013.3 |
| 20260906022013 | 23 | 203 | 0.0 | 0.0 | 0.00 | 0.05 | 0.05 | 95 | 1013.2 |
| 20260906021509 | 23 | 203 | 0.0 | 0.0 | 0.00 | 0.05 | 0.05 | 94 | 1013.2 |
| 20260906021003 | 23 | 203 | 0.0 | 0.0 | 0.00 | 0.05 | 0.05 | 94 | 1013.0 |
| 20260906020502 | 23 | 203 | 0.0 | 0.0 | 0.00 | 0.05 | 0.05 | 94 | 1013.1 |
| 20260906020001 | 23 | 203 | 0.0 | 1.6 | 0.00 | 0.05 | 0.05 | 94 | 1013.2 |
| 20260906015501 | 24 | 151 | 0.0 | 0.0 | 0.00 | 0.05 | 0.05 | 93 | 1013.1 |
| 20260906015001 | 24 | 195 | 1.6 | 1.6 | 0.00 | 0.05 | 0.05 | 93 | 1012.9 |
| 20260906014455 | 24 | 0 | 0.0 | 1.6 | 0.00 | 0.05 | 0.05 | 92 | 1013.0 |
| 20260906013951 | 24 | 0 | 0.0 | 1.6 | 0.00 | 0.05 | 0.05 | 92 | 1013.1 |
| 20260906013447 | 24 | 346 | 0.0 | 0.0 | 0.00 | 0.05 | 0.05 | 92 | 1013.1 |
| 20260906012943 | 25 | 346 | 0.0 | 3.2 | 0.00 | 0.05 | 0.05 | 92 | 1013.4 |
| 20260906012437 | 25 | 187 | 0.0 | 1.6 | 0.00 | 0.05 | 0.05 | 91 | 1013.5 |
| 20260906011936 | 25 | 331 | 0.0 | 0.0 | 0.00 | 0.05 | 0.05 | 91 | 1013.5 |
| 20260906011432 | 25 | 187 | 0.0 | 0.0 | 0.00 | 0.05 | 0.05 | 90 | 1013.4 |
| 20260906010927 | 25 | 278 | 0.0 | 0.0 | 0.00 | 0.05 | 0.05 | 90 | 1013.3 |
| 20260906010422 | 25 | 286 | 0.0 | 1.6 | 0.00 | 0.05 | 0.05 | 90 | 1013.0 |
| 20260906005919 | 25 | 200 | 0.0 | 3.2 | 0.00 | 0.05 | 0.05 | 89 | 1013.2 |
| 20260906005418 | 25 | 270 | 0.0 | 0.0 | 0.00 | 0.05 | 0.05 | 89 | 1013.0 |
| 20260906004916 | 25 | 285 | 0.0 | 1.6 | 0.00 | 0.05 | 0.05 | 89 | 1012.8 |
| 20260906004411 | 25 | 279 | 0.0 | 3.2 | 0.00 | 0.05 | 0.05 | 88 | 1012.8 |
| 20260906003907 | 25 | 270 | 0.0 | 1.6 | 0.00 | 0.05 | 0.05 | 87 | 1012.8 |
| 20260906003402 | 25 | 286 | 0.0 | 1.6 | 0.00 | 0.05 | 0.05 | 86 | 1012.4 |
| 20260906002857 | 25 | 261 | 0.0 | 1.6 | 0.00 | 0.05 | 0.05 | 85 | 1012.3 |
| 20260906002356 | 25 | 270 | 0.0 | 0.0 | 0.00 | 0.05 | 0.05 | 84 | 1012.1 |
| 20260906001852 | 26 | 270 | 0.0 | 0.0 | 0.00 | 0.05 | 0.05 | 83 | 1011.7 |
| 20260906001348 | 26 | 270 | 0.0 | 0.0 | 0.00 | 0.05 | 0.05 | 82 | 1011.9 |
| 20260906000842 | 26 | 270 | 0.0 | 1.6 | 0.00 | 0.05 | 0.05 | 82 | 1011.8 |
| 20260906000337 | 26 | 285 | 0.0 | 0.0 | 0.00 | 0.05 | 0.05 | 81 | 1011.5 |
| 20260905235837 | 26 | 285 | 0.0 | 0.0 | 0.00 | 0.05 | 0.05 | 80 | 1011.8 |
| 20260905235331 | 26 | 285 | 0.0 | 0.0 | 0.00 | 0.05 | 0.05 | 79 | 1012.3 |
| 20260905234827 | 26 | 285 | 0.0 | 0.0 | 0.00 | 0.05 | 0.05 | 79 | 1012.0 |
| 20260905234322 | 27 | 285 | 0.0 | 0.0 | 0.00 | 0.05 | 0.05 | 77 | 1012.1 |
| 20260905233817 | 27 | 261 | 0.0 | 1.6 | 0.00 | 0.05 | 0.05 | 77 | 1011.8 |
| 20260905233312 | 27 | 345 | 0.0 | 0.0 | 0.00 | 0.05 | 0.05 | 76 | 1012.0 |
| 20260905232811 | 27 | 345 | 0.0 | 0.0 | 0.00 | 0.05 | 0.05 | 75 | 1012.0 |
| 20260905232307 | 27 | 345 | 0.0 | 1.6 | 0.00 | 0.05 | 0.05 | 74 | 1011.9 |
| 20260905231803 | 27 | 279 | 0.0 | 0.0 | 0.00 | 0.05 | 0.05 | 75 | 1011.9 |
| 20260905231258 | 27 | 180 | 0.0 | 0.0 | 0.00 | 0.05 | 0.05 | 74 | 1012.0 |
| 20260905230754 | 27 | 270 | 0.0 | 0.0 | 0.00 | 0.05 | 0.05 | 74 | 1011.9 |
| 20260905230252 | 27 | 337 | 0.0 | 1.6 | 0.00 | 0.05 | 0.05 | 74 | 1011.7 |
| 20260905225752 | 27 | 180 | 0.0 | 0.0 | 0.00 | 0.05 | 0.05 | 72 | 1011.9 |
| 20260905225247 | 27 | 331 | 0.0 | 0.0 | 0.00 | 0.05 | 0.05 | 71 | 1012.3 |
| 20260905224746 | 27 | 331 | 0.0 | 0.0 | 0.00 | 0.05 | 0.05 | 73 | 1011.9 |
| 20260905224242 | 27 | 345 | 0.0 | 0.0 | 0.00 | 0.05 | 0.05 | 71 | 1012.1 |
| 20260905223737 | 28 | 270 | 0.0 | 0.0 | 0.00 | 0.05 | 0.05 | 73 | 1012.3 |
| 20260905223234 | 28 | 0 | 0.0 | 3.2 | 0.00 | 0.05 | 0.05 | 72 | 1012.0 |
| 20260905222730 | 28 | 6 | 0.0 | 3.2 | 0.00 | 0.05 | 0.05 | 72 | 1011.8 |
| 20260905222228 | 28 | 5 | 0.0 | 3.2 | 0.00 | 0.05 | 0.05 | 72 | 1012.0 |
| 20260905221724 | 28 | 262 | 0.0 | 4.8 | 0.00 | 0.05 | 0.05 | 73 | 1011.8 |
| 20260905221221 | 28 | 340 | 0.0 | 3.2 | 0.00 | 0.05 | 0.05 | 72 | 1012.0 |
| 20260905220717 | 28 | 331 | 0.0 | 1.6 | 0.00 | 0.05 | 0.05 | 72 | 1011.9 |
| 20260905220213 | 28 | 331 | 0.0 | 3.2 | 0.00 | 0.05 | 0.05 | 71 | 1012.4 |
| 20260905215712 | 28 | 320 | 0.0 | 4.8 | 0.00 | 0.05 | 0.05 | 72 | 1012.1 |
| 20260905215208 | 28 | 0 | 0.0 | 3.2 | 0.00 | 0.05 | 0.05 | 75 | 1012.0 |
| 20260905214704 | 27 | 0 | 0.0 | 1.6 | 0.00 | 0.05 | 0.05 | 81 | 1012.0 |
| 20260905214159 | 27 | 74 | 0.0 | 1.6 | 0.00 | 0.05 | 0.05 | 84 | 1012.4 |
| 20260905213654 | 27 | 6 | 0.0 | 3.2 | 0.00 | 0.05 | 0.05 | 84 | 1012.3 |
| 20260905213150 | 27 | 188 | 0.0 | 1.6 | 0.00 | 0.05 | 0.05 | 82 | 1011.8 |
| 20260905212645 | 27 | 203 | 0.0 | 1.6 | 0.00 | 0.05 | 0.05 | 80 | 1012.1 |
| 20260905212144 | 27 | 279 | 0.0 | 0.0 | 0.00 | 0.05 | 0.05 | 82 | 1012.0 |
| 20260905211639 | 26 | 261 | 0.0 | 1.6 | 0.00 | 0.05 | 0.05 | 85 | 1012.1 |
| 20260905211134 | 26 | 348 | 0.0 | 1.6 | 0.00 | 0.05 | 0.05 | 84 | 1012.3 |
| 20260905210631 | 26 | 352 | 0.0 | 1.6 | 0.00 | 0.05 | 0.05 | 85 | 1012.0 |
| 20260905210126 | 26 | 331 | 1.6 | 1.6 | 0.05 | 0.05 | 0.05 | 84 | 1012.4 |
| 20260905205625 | 26 | 270 | 0.0 | 0.0 | 0.05 | 0.05 | 0.05 | 84 | 1013.1 |
| 20260905205124 | 26 | 270 | 0.0 | 3.2 | 0.00 | 0.05 | 0.05 | 84 | 1013.1 |
| 20260905204624 | 26 | 172 | 0.0 | 0.0 | 0.00 | 0.05 | 0.05 | 83 | 1013.3 |
| 20260905204120 | 26 | 270 | 0.0 | 1.6 | 0.00 | 0.05 | 0.05 | 83 | 1013.4 |
| 20260905203620 | 26 | 279 | 0.0 | 3.2 | 0.00 | 0.05 | 0.05 | 81 | 1013.4 |
| 20260905203115 | 26 | 264 | 3.2 | 3.2 | 0.05 | 0.05 | 0.05 | 79 | 1013.3 |
| 20260905202610 | 27 | 285 | 1.6 | 1.6 | 0.05 | 0.05 | 0.05 | 76 | 1013.3 |
| 20260905202105 | 27 | 270 | 1.6 | 3.2 | 0.05 | 0.03 | 0.03 | 75 | 1013.4 |
| 20260905201601 | 27 | 246 | 0.0 | 6.4 | 0.13 | 0.03 | 0.03 | 74 | 1013.3 |
| 20260905201100 | 28 | 274 | 3.2 | 4.8 | 0.05 | 0.03 | 0.03 | 72 | 1013.3 |
| 20260905200556 | 28 | 331 | 0.0 | 4.8 | 0.05 | 0.00 | 0.00 | 67 | 1012.9 |
| 20260905200056 | 30 | 261 | 1.6 | 9.7 | 0.00 | 0.00 | 0.00 | 65 | 1012.6 |
| 20260905195550 | 31 | 26 | 1.6 | 16.1 | 0.00 | 0.00 | 0.00 | 58 | 1012.3 |
| 20260905195046 | 32 | 22 | 3.2 | 11.3 | 0.00 | 0.00 | 0.00 | 55 | 1012.3 |
| 20260905194545 | 34 | 35 | 0.0 | 19.3 | 0.00 | 0.00 | 0.00 | 51 | 1012.4 |
| 20260905194044 | 36 | 337 | 1.6 | 4.8 | 0.00 | 0.00 | 0.00 | 49 | 1012.0 |
| 20260905193540 | 36 | 331 | 0.0 | 4.8 | 0.00 | 0.00 | 0.00 | 48 | 1011.6 |
| 20260905193035 | 36 | 23 | 0.0 | 3.2 | 0.00 | 0.00 | 0.00 | 47 | 1011.6 |
| 20260905192530 | 36 | 355 | 3.2 | 4.8 | 0.00 | 0.00 | 0.00 | 47 | 1011.7 |
| 20260905192027 | 37 | 23 | 3.2 | 6.4 | 0.00 | 0.00 | 0.00 | 47 | 1011.7 |
| 20260905191525 | 37 | 341 | 3.2 | 8.0 | 0.00 | 0.00 | 0.00 | 46 | 1011.8 |
| 20260905191024 | 37 | 0 | 3.2 | 3.2 | 0.00 | 0.00 | 0.00 | 47 | 1012.0 |
| 20260905190522 | 38 | 198 | 3.2 | 3.2 | 0.00 | 0.00 | 0.00 | 44 | 1011.8 |
| 20260905190022 | 37 | 200 | 0.0 | 1.6 | 0.00 | 0.00 | 0.00 | 46 | 1011.9 |
| 20260905185516 | 37 | 306 | 3.2 | 6.4 | 0.00 | 0.00 | 0.00 | 45 | 1011.9 |
| 20260905185015 | 37 | 90 | 0.0 | 6.4 | 0.00 | 0.00 | 0.00 | 46 | 1011.7 |
| 20260905184510 | 38 | 172 | 3.2 | 8.0 | 0.00 | 0.00 | 0.00 | 45 | 1011.9 |
| 20260905184009 | 38 | 180 | 4.8 | 4.8 | 0.00 | 0.00 | 0.00 | 46 | 1011.9 |
| 20260905183508 | 37 | 279 | 0.0 | 8.0 | 0.00 | 0.00 | 0.00 | 47 | 1011.9 |
| 20260905183003 | 37 | 253 | 3.2 | 8.0 | 0.00 | 0.00 | 0.00 | 47 | 1011.9 |
| 20260905182503 | 37 | 329 | 4.8 | 8.0 | 0.00 | 0.00 | 0.00 | 47 | 1012.1 |
| 20260905181958 | 37 | 53 | 6.4 | 8.0 | 0.00 | 0.00 | 0.00 | 46 | 1012.1 |
| 20260905181453 | 37 | 229 | 0.0 | 8.0 | 0.00 | 0.00 | 0.00 | 47 | 1012.3 |
| 20260905180952 | 37 | 90 | 4.8 | 4.8 | 0.00 | 0.00 | 0.00 | 46 | 1012.6 |
| 20260905180446 | 37 | 28 | 4.8 | 6.4 | 0.00 | 0.00 | 0.00 | 46 | 1012.7 |
| 20260905175942 | 38 | 300 | 1.6 | 3.2 | 0.00 | 0.00 | 0.00 | 47 | 1012.7 |
| 20260905175441 | 37 | 300 | 0.0 | 11.3 | 0.00 | 0.00 | 0.00 | 48 | 1012.9 |
| 20260905174937 | 37 | 182 | 6.4 | 6.4 | 0.00 | 0.00 | 0.00 | 48 | 1012.8 |
| 20260905174432 | 36 | 201 | 3.2 | 6.4 | 0.00 | 0.00 | 0.00 | 49 | 1012.8 |
| 20260905173928 | 37 | 40 | 3.2 | 6.4 | 0.00 | 0.00 | 0.00 | 48 | 1012.9 |
| 20260905173424 | 36 | 334 | 3.2 | 6.4 | 0.00 | 0.00 | 0.00 | 50 | 1012.8 |
| 20260905172919 | 36 | 188 | 4.8 | 6.4 | 0.00 | 0.00 | 0.00 | 48 | 1013.0 |
| 20260905172417 | 36 | 177 | 0.0 | 8.0 | 0.00 | 0.00 | 0.00 | 48 | 1012.8 |
| 20260905171913 | 37 | 63 | 0.0 | 4.8 | 0.00 | 0.00 | 0.00 | 50 | 1013.2 |
| 20260905171409 | 36 | 270 | 1.6 | 6.4 | 0.00 | 0.00 | 0.00 | 49 | 1013.0 |
| 20260905170905 | 36 | 327 | 3.2 | 6.4 | 0.00 | 0.00 | 0.00 | 51 | 1012.8 |
| 20260905170401 | 36 | 177 | 4.8 | 8.0 | 0.00 | 0.00 | 0.00 | 50 | 1013.2 |
| 20260905165901 | 36 | 180 | 0.0 | 3.2 | 0.00 | 0.00 | 0.00 | 51 | 1013.3 |
| 20260905165355 | 36 | 166 | 1.6 | 4.8 | 0.00 | 0.00 | 0.00 | 52 | 1013.6 |
| 20260905164850 | 36 | 55 | 3.2 | 3.2 | 0.00 | 0.00 | 0.00 | 53 | 1013.6 |
| 20260905164345 | 36 | 303 | 0.0 | 4.8 | 0.00 | 0.00 | 0.00 | 51 | 1013.8 |
| 20260905163840 | 36 | 90 | 3.2 | 6.4 | 0.00 | 0.00 | 0.00 | 51 | 1013.8 |
| 20260905163337 | 37 | 180 | 0.0 | 4.8 | 0.00 | 0.00 | 0.00 | 52 | 1013.9 |
| 20260905162833 | 36 | 0 | 0.0 | 4.8 | 0.00 | 0.00 | 0.00 | 54 | 1014.0 |
| 20260905162326 | 36 | 7 | 1.6 | 4.8 | 0.00 | 0.00 | 0.00 | 53 | 1014.1 |
| 20260905161821 | 36 | 306 | 3.2 | 4.8 | 0.00 | 0.00 | 0.00 | 56 | 1014.0 |
| 20260905161320 | 36 | 279 | 1.6 | 4.8 | 0.00 | 0.00 | 0.00 | 57 | 1014.0 |
| 20260905160819 | 35 | 257 | 0.0 | 3.2 | 0.00 | 0.00 | 0.00 | 57 | 1014.3 |
| 20260905160313 | 35 | 270 | 3.2 | 3.2 | 0.00 | 0.00 | 0.00 | 57 | 1014.1 |
| 20260905155808 | 35 | 180 | 0.0 | 3.2 | 0.00 | 0.00 | 0.00 | 57 | 1014.2 |
| 20260905155307 | 35 | 115 | 4.8 | 4.8 | 0.00 | 0.00 | 0.00 | 56 | 1014.3 |
| 20260905154801 | 35 | 264 | 3.2 | 4.8 | 0.00 | 0.00 | 0.00 | 58 | 1014.3 |
| 20260905154257 | 35 | 287 | 3.2 | 3.2 | 0.00 | 0.00 | 0.00 | 59 | 1014.3 |
| 20260905153752 | 35 | 262 | 1.6 | 3.2 | 0.00 | 0.00 | 0.00 | 58 | 1014.4 |
| 20260905153248 | 35 | 307 | 0.0 | 3.2 | 0.00 | 0.00 | 0.00 | 61 | 1014.6 |
| 20260905152742 | 34 | 300 | 3.2 | 4.8 | 0.00 | 0.00 | 0.00 | 61 | 1014.6 |
| 20260905152237 | 34 | 276 | 3.2 | 3.2 | 0.00 | 0.00 | 0.00 | 63 | 1014.6 |
| 20260905151736 | 34 | 277 | 0.0 | 3.2 | 0.00 | 0.00 | 0.00 | 62 | 1014.4 |
| 20260905151232 | 35 | 180 | 0.0 | 3.2 | 0.00 | 0.00 | 0.00 | 61 | 1014.8 |
| 20260905150726 | 33 | 5 | 3.2 | 4.8 | 0.00 | 0.00 | 0.00 | 63 | 1014.6 |
| 20260905150225 | 33 | 342 | 0.0 | 3.2 | 0.00 | 0.00 | 0.00 | 63 | 1014.7 |
| 20260905145723 | 33 | 270 | 0.0 | 1.6 | 0.00 | 0.00 | 0.00 | 65 | 1014.8 |
| 20260905145218 | 33 | 261 | 0.0 | 1.6 | 0.00 | 0.00 | 0.00 | 65 | 1014.7 |
| 20260905144718 | 33 | 262 | 0.0 | 3.2 | 0.00 | 0.00 | 0.00 | 65 | 1015.0 |
| 20260905144218 | 32 | 270 | 0.0 | 1.6 | 0.00 | 0.00 | 0.00 | 67 | 1014.8 |
| 20260905143712 | 32 | 285 | 1.6 | 3.2 | 0.00 | 0.00 | 0.00 | 69 | 1014.6 |
| 20260905143212 | 32 | 270 | 0.0 | 3.2 | 0.00 | 0.00 | 0.00 | 70 | 1014.9 |
| 20260905142710 | 32 | 262 | 0.0 | 3.2 | 0.00 | 0.00 | 0.00 | 70 | 1014.9 |
| 20260905142205 | 32 | 0 | 0.0 | 1.6 | 0.00 | 0.00 | 0.00 | 70 | 1015.1 |
| 20260905141701 | 32 | 270 | 0.0 | 3.2 | 0.00 | 0.00 | 0.00 | 71 | 1014.9 |
| 20260905141156 | 31 | 203 | 0.0 | 1.6 | 0.00 | 0.00 | 0.00 | 73 | 1014.8 |
| 20260905140651 | 31 | 213 | 0.0 | 3.2 | 0.00 | 0.00 | 0.00 | 72 | 1015.1 |
| 20260905140145 | 31 | 279 | 0.0 | 3.2 | 0.00 | 0.00 | 0.00 | 73 | 1015.1 |
| 20260905135640 | 31 | 278 | 1.6 | 3.2 | 0.00 | 0.00 | 0.00 | 74 | 1015.1 |
| 20260905135135 | 31 | 285 | 0.0 | 3.2 | 0.00 | 0.00 | 0.00 | 75 | 1015.1 |
| 20260905134624 | 30 | 286 | 0.0 | 1.6 | 0.00 | 0.00 | 0.00 | 76 | 1015.0 |
| 20260905134123 | 30 | 262 | 0.0 | 1.6 | 0.00 | 0.00 | 0.00 | 77 | 1015.3 |
| 20260905133619 | 30 | 278 | 0.0 | 1.6 | 0.00 | 0.00 | 0.00 | 78 | 1015.1 |
| 20260905133119 | 28 | 249 | 0.0 | 3.2 | 0.00 | 0.00 | 0.00 | 80 | 1015.0 |
| 20260905132619 | 29 | 279 | 0.0 | 1.6 | 0.00 | 0.00 | 0.00 | 80 | 1015.0 |
| 20260905132113 | 28 | 180 | 0.0 | 3.2 | 0.00 | 0.00 | 0.00 | 82 | 1015.2 |
| 20260905131609 | 28 | 174 | 4.8 | 4.8 | 0.00 | 0.00 | 0.00 | 82 | 1015.3 |
| 20260905131104 | 28 | 201 | 3.2 | 3.2 | 0.00 | 0.00 | 0.00 | 82 | 1015.3 |
| 20260905130603 | 27 | 261 | 1.6 | 1.6 | 0.00 | 0.00 | 0.00 | 84 | 1015.2 |
| 20260905130058 | 27 | 270 | 1.6 | 1.6 | 0.00 | 0.00 | 0.00 | 86 | 1015.2 |
| 20260905125557 | 26 | 261 | 0.0 | 1.6 | 0.00 | 0.00 | 0.00 | 88 | 1015.1 |
| 20260905125053 | 26 | 270 | 1.6 | 3.2 | 0.00 | 0.00 | 0.00 | 90 | 1015.2 |
| 20260905124550 | 25 | 270 | 0.0 | 1.6 | 0.00 | 0.00 | 0.00 | 93 | 1015.2 |
| 20260905124045 | 25 | 270 | 0.0 | 1.6 | 0.00 | 0.00 | 0.00 | 93 | 1015.2 |
| 20260905123540 | 24 | 270 | 0.0 | 0.0 | 0.00 | 0.00 | 0.00 | 94 | 1015.1 |
| 20260905123038 | 24 | 294 | 0.0 | 3.2 | 0.00 | 0.00 | 0.00 | 95 | 1015.2 |
| 20260905122537 | 23 | 261 | 0.0 | 0.0 | 0.00 | 0.00 | 0.00 | 95 | 1015.2 |
| 20260905122032 | 23 | 270 | 0.0 | 0.0 | 0.00 | 0.00 | 0.00 | 96 | 1015.0 |
| 20260905121527 | 23 | 270 | 0.0 | 0.0 | 0.00 | 0.00 | 0.00 | 96 | 1015.0 |
| 20260905121021 | 23 | 261 | 0.0 | 0.0 | 0.00 | 0.00 | 0.00 | 96 | 1014.9 |
| 20260905120521 | 23 | 261 | 0.0 | 0.0 | 0.00 | 0.00 | 0.00 | 97 | 1015.0 |
| 20260905120016 | 23 | 261 | 0.0 | 0.0 | 0.00 | 0.00 | 0.00 | 97 | 1014.9 |
| 20260905115515 | 23 | 261 | 0.0 | 0.0 | 0.00 | 0.00 | 0.00 | 97 | 1014.8 |
| 20260905115009 | 23 | 261 | 0.0 | 1.6 | 0.00 | 0.00 | 0.00 | 97 | 1014.9 |
| 20260905114504 | 23 | 270 | 0.0 | 0.0 | 0.00 | 0.00 | 0.00 | 97 | 1014.7 |
| 20260905114003 | 23 | 270 | 0.0 | 0.0 | 0.00 | 0.00 | 0.00 | 97 | 1014.9 |
| 20260905113458 | 22 | 270 | 0.0 | 0.0 | 0.00 | 0.00 | 0.00 | 97 | 1014.5 |
| 20260905112954 | 22 | 254 | 0.0 | 0.0 | 0.00 | 0.00 | 0.00 | 97 | 1014.5 |
| 20260905112449 | 22 | 270 | 0.0 | 0.0 | 0.00 | 0.00 | 0.00 | 97 | 1014.5 |
| 20260905111944 | 22 | 270 | 0.0 | 1.6 | 0.00 | 0.00 | 0.00 | 97 | 1014.4 |
| 20260905111443 | 23 | 246 | 0.0 | 1.6 | 0.00 | 0.00 | 0.00 | 97 | 1014.4 |
| 20260905110938 | 22 | 270 | 0.0 | 0.0 | 0.00 | 0.00 | 0.00 | 97 | 1014.2 |
| 20260905110432 | 22 | 254 | 0.0 | 1.6 | 0.00 | 0.00 | 0.00 | 97 | 1014.3 |
| 20260905105932 | 23 | 261 | 0.0 | 0.0 | 0.00 | 0.00 | 0.00 | 96 | 1014.2 |
| 20260905105426 | 23 | 270 | 0.0 | 0.0 | 0.00 | 0.00 | 0.00 | 96 | 1014.1 |
| 20260905104926 | 23 | 15 | 0.0 | 0.0 | 0.00 | 0.00 | 0.00 | 96 | 1014.2 |
| 20260905104422 | 23 | 15 | 0.0 | 0.0 | 0.00 | 0.00 | 0.00 | 96 | 1014.3 |
| 20260905103916 | 23 | 15 | 0.0 | 0.0 | 0.00 | 0.00 | 0.00 | 96 | 1014.2 |
| 20260905103412 | 23 | 15 | 0.0 | 0.0 | 0.00 | 0.00 | 0.00 | 96 | 1014.2 |
| 20260905102907 | 23 | 15 | 0.0 | 0.0 | 0.00 | 0.00 | 0.00 | 96 | 1013.9 |
| 20260905102404 | 23 | 15 | 0.0 | 0.0 | 0.00 | 0.00 | 0.00 | 96 | 1014.0 |
| 20260905101904 | 23 | 15 | 0.0 | 0.0 | 0.00 | 0.00 | 0.00 | 96 | 1014.0 |
| 20260905101402 | 23 | 15 | 0.0 | 0.0 | 0.00 | 0.00 | 0.00 | 96 | 1014.0 |
| 20260905100857 | 23 | 15 | 0.0 | 0.0 | 0.00 | 0.00 | 0.00 | 95 | 1013.9 |
| 20260905100353 | 23 | 15 | 0.0 | 0.0 | 0.00 | 0.00 | 0.00 | 95 | 1014.0 |
| 20260905095852 | 23 | 15 | 0.0 | 0.0 | 0.00 | 0.00 | 0.00 | 95 | 1014.0 |